Hourly Data Report for October 15, 2013

All times are specified in Local Standard Time (LST). Add 1 hour to adjust for Daylight Saving Time where and when it is observed.

FREDERICTON
NEW BRUNSWICK

45°52'08.000" N
66°32'14.000" W
20.70 m
8101505
71700
YFC

Download Data

Hourly Data (October 2013)
Hourly Data Report for October 15, 2013
Temp Definition
°C
Dew Point Temp Definition
°C
Rel Hum Definition
%
Wind Dir Definition
10's deg

Wind Spd Definition
km/h
Visibility Definition
km
Stn Press Definition
kPa
Hmdx Definition


Wind Chill Definition


Weather Definition


TIME
00:00 Legend Double Dagger 11.3 10.2 93 LegendMM 4 16.1 102.06     LegendNANA
01:00 Legend Double Dagger 10.9 10.0 94 23 8 16.1 102.04     LegendNANA
02:00 Legend Double Dagger 10.2 9.6 96 LegendMM 4 16.1 102.04     LegendNANA
03:00 Legend Double Dagger 10.4 9.8 96 21 8 16.1 102.00     LegendNANA
04:00 Legend Double Dagger 10.5 9.9 96 25 4 16.1 102.06     LegendNANA
05:00 Legend Double Dagger 11.0 10.4 96 25 8 16.1 102.09     LegendNANA
06:00 Legend Double Dagger 10.9 10.2 96 17 5 16.1 102.10     LegendNANA
07:00 Legend Double Dagger 11.3 10.4 94 31 4 16.1 102.15     LegendNANA
08:00 Legend Double Dagger 12.3 11.1 92 30 4 16.1 102.19     LegendNANA
09:00 Legend Double Dagger 14.2 10.6 79 33 5 16.1 102.21     LegendNANA
10:00 Legend Double Dagger 15.1 10.0 71 34 13 16.1 102.24     LegendNANA
11:00 Legend Double Dagger 16.2 8.4 60 33 9 16.1 102.21     LegendNANA
12:00 Legend Double Dagger 17.1 7.9 54 LegendMM 9 16.1 102.17     LegendNANA
13:00 Legend Double Dagger 17.8 8.0 52 30 9 16.1 102.10     LegendNANA
14:00 Legend Double Dagger 17.6 7.0 50 20 5 16.1 102.08     LegendNANA
15:00 Legend Double Dagger 18.5 6.4 45 35 13 16.1 102.05     LegendNANA
16:00 Legend Double Dagger 17.8 6.1 46 34 9 16.1 102.03     LegendNANA
17:00 Legend Double Dagger 16.5 6.7 52 31 5 16.1 102.02     LegendNANA
18:00 Legend Double Dagger 13.6 7.2 65 30 5 16.1 102.05     LegendNANA
19:00 Legend Double Dagger 10.7 6.7 76 29 5 16.1 102.11     LegendNANA
20:00 Legend Double Dagger 8.1 6.4 89   0 16.1 102.15     LegendNANA
21:00 Legend Double Dagger 8.0 6.5 90 15 5 16.1 102.20     LegendNANA
22:00 Legend Double Dagger 8.2 6.3 88 2 5 16.1 102.19     LegendNANA
23:00 Legend Double Dagger 7.1 5.2 88 3 5 16.1 102.20     LegendNANA

Notes on Data Quality.

Legend

  • E = Estimated
  • M = Missing
  • NA = Not Available
  • ‡ = Partner data that is not subject to review by the National Climate Archives
Date modified: